• In India
  • List of Countries
  • For 7 days
  • Water Temperature
  • Satellite Maps
  • Weather Map
  • Weather Widgets
  • user-avatar
    Login

    Hourly Weather Salzburg

    Today, 19 December, Wednesday

    Time Temperature Precipitation Wind Pressure Humidity
    00:00 -9°C° 0 mm 2 mps 625 mmHg 73%
    01:00 -9°C° 0 mm 1 mps 624 mmHg 75%
    02:00 -10°C° 0 mm 2 mps 624 mmHg 73%
    03:00 -9°C° 0 mm 2 mps 624 mmHg 71%
    04:00 -9°C° 0 mm 2 mps 624 mmHg 69%
    05:00 -9°C° 0 mm 2 mps 624 mmHg 68%
    06:00 -8°C° 0 mm 2 mps 624 mmHg 68%
    07:00 -8°C° 0 mm 1 mps 624 mmHg 74%
    08:00 -6°C° 0 mm 1 mps 624 mmHg 73%
    09:00 -4°C° 0 mm 1 mps 625 mmHg 72%
    10:00 -2°C° 0 mm 1 mps 626 mmHg 71%
    11:00 -2°C° 0 mm 1 mps 626 mmHg 73%
    12:00 -1°C° 0 mm 1 mps 626 mmHg 75%
    13:00 0°C° 0 mm 1 mps 625 mmHg 77%
    14:00 -1°C° 0 mm 1 mps 625 mmHg 78%
    15:00 -1°C° 0 mm 1 mps 624 mmHg 78%
    16:00 -2°C° 0 mm 1 mps 624 mmHg 79%
    17:00 -3°C° 0 mm 1 mps 623 mmHg 79%
    18:00 -4°C° 0 mm 1 mps 623 mmHg 79%
    19:00 -8°C° 0 mm 2 mps 622 mmHg 79%
    20:00 -8°C° 0 mm 2 mps 622 mmHg 79%
    21:00 -8°C° 0 mm 2 mps 622 mmHg 79%
    22:00 -8°C° 0 mm 2 mps 622 mmHg 79%
    23:00 -8°C° 0 mm 2 mps 622 mmHg 79%

    Tomorrow, 20 December, Thursday

    Time Temperature Precipitation Wind Pressure Humidity
    00:00 -8°C° 0 mm 2 mps 622 mmHg 79%
    01:00 -8°C° 0 mm 2 mps 622 mmHg 80%
    02:00 -7°C° 0.2 mm 1 mps 623 mmHg 82%
    03:00 -6°C° 0.2 mm 1 mps 623 mmHg 85%
    04:00 -6°C° 0.2 mm 1 mps 623 mmHg 88%
    05:00 -4°C° 0.5 mm 1 mps 623 mmHg 89%
    06:00 -4°C° 0.5 mm 1 mps 623 mmHg 91%
    07:00 -4°C° 0.5 mm 1 mps 624 mmHg 92%
    08:00 -3°C° 0.5 mm 1 mps 624 mmHg 93%
    09:00 -3°C° 0.5 mm 1 mps 625 mmHg 93%
    10:00 -2°C° 0.5 mm 1 mps 625 mmHg 93%
    11:00 -2°C° 0.4 mm 1 mps 625 mmHg 93%
    12:00 -1°C° 0.4 mm 1 mps 625 mmHg 93%
    13:00 -1°C° 0.4 mm 1 mps 625 mmHg 93%
    14:00 -1°C° 0.1 mm 1 mps 625 mmHg 92%
    15:00 -2°C° 0.1 mm 1 mps 625 mmHg 92%
    16:00 -2°C° 0.1 mm 1 mps 625 mmHg 92%
    17:00 -3°C° 0.1 mm 1 mps 625 mmHg 91%
    18:00 -3°C° 0.1 mm 1 mps 626 mmHg 90%
    19:00 -3°C° 0.1 mm 1 mps 626 mmHg 88%
    20:00 -4°C° 0 mm 1 mps 626 mmHg 87%
    21:00 -7°C° 0 mm 2 mps 626 mmHg 86%
    22:00 -7°C° 0 mm 2 mps 626 mmHg 85%
    23:00 -7°C° 0 mm 2 mps 626 mmHg 85%

    Day after tomorrow, 21 December, Friday

    Time Temperature Precipitation Wind Pressure Humidity
    00:00 -8°C° 0 mm 2 mps 626 mmHg 84%
    01:00 -8°C° 0 mm 2 mps 626 mmHg 83%
    02:00 -8°C° 0 mm 2 mps 625 mmHg 83%
    03:00 -8°C° 0 mm 2 mps 625 mmHg 82%
    04:00 -8°C° 0 mm 2 mps 625 mmHg 82%
    05:00 -8°C° 0 mm 2 mps 625 mmHg 81%
    06:00 -7°C° 0 mm 2 mps 625 mmHg 80%
    07:00 -7°C° 0 mm 2 mps 625 mmHg 79%
    08:00 -6°C° 0 mm 2 mps 625 mmHg 79%
    09:00 -6°C° 0 mm 3 mps 625 mmHg 78%
    10:00 -5°C° 0 mm 3 mps 625 mmHg 78%
    11:00 -4°C° 0 mm 3 mps 625 mmHg 79%
    12:00 -2°C° 0 mm 3 mps 624 mmHg 81%
    13:00 -2°C° 0 mm 3 mps 624 mmHg 82%
    14:00 -2°C° 0.4 mm 3 mps 624 mmHg 83%
    15:00 -2°C° 0.4 mm 2 mps 624 mmHg 84%
    16:00 -2°C° 0.4 mm 2 mps 623 mmHg 84%
    17:00 -2°C° 0.6 mm 2 mps 624 mmHg 84%
    18:00 -2°C° 0.6 mm 2 mps 624 mmHg 84%
    19:00 -2°C° 0.6 mm 2 mps 624 mmHg 84%
    20:00 -2°C° 0.3 mm 2 mps 624 mmHg 84%
    21:00 -2°C° 0.3 mm 2 mps 624 mmHg 85%
    22:00 -1°C° 0.3 mm 2 mps 624 mmHg 85%
    23:00 -1°C° 0.2 mm 2 mps 624 mmHg 86%

    22 December, Saturday

    Time Temperature Precipitation Wind Pressure Humidity
    00:00 -1°C° 0.2 mm 2 mps 624 mmHg 86%
    01:00 -1°C° 0.2 mm 2 mps 624 mmHg 87%
    02:00 -1°C° 0 mm 2 mps 624 mmHg 85%
    03:00 -2°C° 0 mm 2 mps 623 mmHg 84%
    04:00 -2°C° 0 mm 2 mps 623 mmHg 83%
    05:00 -2°C° 0.2 mm 2 mps 623 mmHg 83%
    06:00 -1°C° 0.2 mm 2 mps 624 mmHg 83%
    07:00 -1°C° 0.2 mm 2 mps 624 mmHg 83%
    08:00 -1°C° 0 mm 2 mps 624 mmHg 85%
    09:00 +1°C° 0 mm 2 mps 624 mmHg 86%
    10:00 +1°C° 0 mm 2 mps 624 mmHg 88%
    11:00 +2°C° 0.2 mm 2 mps 624 mmHg 90%
    12:00 +2°C° 0.2 mm 2 mps 624 mmHg 92%
    13:00 +2°C° 0.2 mm 2 mps 624 mmHg 93%
    14:00 +2°C° 0.4 mm 2 mps 624 mmHg 93%
    15:00 +1°C° 0.4 mm 2 mps 625 mmHg 93%
    16:00 +1°C° 0.4 mm 2 mps 625 mmHg 93%
    17:00 -1°C° 0.8 mm 2 mps 625 mmHg 93%
    18:00 -1°C° 0.8 mm 2 mps 626 mmHg 93%
    19:00 -1°C° 0.8 mm 2 mps 626 mmHg 94%
    20:00 -1°C° 0.8 mm 2 mps 626 mmHg 94%
    21:00 -2°C° 0.8 mm 2 mps 627 mmHg 95%
    22:00 -2°C° 0.8 mm 2 mps 627 mmHg 95%
    23:00 -2°C° 0.8 mm 2 mps 627 mmHg 95%

    23 December, Sunday

    Time Temperature Precipitation Wind Pressure Humidity
    00:00 -2°C° 0.8 mm 2 mps 627 mmHg 95%
    01:00 -2°C° 0.8 mm 2 mps 627 mmHg 95%
    02:00 -2°C° 0.6 mm 2 mps 627 mmHg 94%
    03:00 -2°C° 0.6 mm 2 mps 627 mmHg 94%
    04:00 -2°C° 0.6 mm 2 mps 627 mmHg 93%
    05:00 -2°C° 0.4 mm 2 mps 627 mmHg 93%
    06:00 -2°C° 0.4 mm 2 mps 627 mmHg 93%
    07:00 0°C° 0.4 mm 1 mps 627 mmHg 92%
    08:00 +1°C° 0.7 mm 1 mps 627 mmHg 93%
    09:00 +1°C° 0.7 mm 1 mps 628 mmHg 94%
    10:00 +1°C° 0.7 mm 1 mps 628 mmHg 95%
    11:00 +1°C° 1.1 mm 1 mps 628 mmHg 95%
    12:00 +1°C° 1.1 mm 1 mps 627 mmHg 95%
    13:00 +1°C° 1.1 mm 1 mps 627 mmHg 95%
    14:00 +1°C° 1.2 mm 1 mps 627 mmHg 95%
    15:00 0°C° 1.2 mm 1 mps 627 mmHg 95%
    16:00 0°C° 1.2 mm 1 mps 627 mmHg 95%
    17:00 0°C° 1.2 mm 1 mps 627 mmHg 95%
    18:00 0°C° 1.2 mm 1 mps 627 mmHg 95%
    19:00 -1°C° 1.2 mm 1 mps 627 mmHg 95%
    20:00 -1°C° 1.3 mm 1 mps 628 mmHg 95%
    21:00 -1°C° 1.3 mm 1 mps 628 mmHg 95%
    22:00 -1°C° 1.3 mm 1 mps 628 mmHg 95%
    23:00 -1°C° 0.7 mm 1 mps 628 mmHg 95%

    24 December, Monday

    Time Temperature Precipitation Wind Pressure Humidity
    00:00 -1°C° 0.7 mm 1 mps 628 mmHg 95%
    01:00 -1°C° 0.7 mm 1 mps 628 mmHg 95%
    02:00 -1°C° 0.9 mm 1 mps 628 mmHg 95%
    03:00 -1°C° 0.9 mm 1 mps 628 mmHg 95%
    04:00 -1°C° 0.9 mm 1 mps 628 mmHg 95%
    05:00 -1°C° 1.5 mm 1 mps 628 mmHg 95%
    06:00 -1°C° 1.5 mm 1 mps 628 mmHg 96%
    07:00 -1°C° 1.5 mm 1 mps 628 mmHg 96%
    08:00 -1°C° 1.3 mm 1 mps 628 mmHg 96%
    09:00 -1°C° 1.3 mm 1 mps 628 mmHg 95%
    10:00 -1°C° 1.3 mm 1 mps 628 mmHg 95%
    11:00 -1°C° 0.9 mm 1 mps 628 mmHg 94%
    12:00 -1°C° 0.9 mm 1 mps 628 mmHg 94%
    13:00 -1°C° 0.9 mm 1 mps 628 mmHg 94%
    14:00 -1°C° 0.5 mm 1 mps 629 mmHg 94%
    15:00 -2°C° 0.5 mm 1 mps 629 mmHg 95%
    16:00 -2°C° 0.5 mm 1 mps 629 mmHg 95%
    17:00 -2°C° 0.1 mm 1 mps 629 mmHg 95%
    18:00 -3°C° 0.1 mm 1 mps 629 mmHg 95%
    19:00 -3°C° 0.1 mm 1 mps 630 mmHg 95%
    20:00 -4°C° 0 mm 1 mps 630 mmHg 95%
    21:00 -4°C° 0 mm 1 mps 630 mmHg 95%
    22:00 -4°C° 0 mm 1 mps 630 mmHg 95%
    23:00 -6°C° 0 mm 1 mps 630 mmHg 94%
    Show more